EW7606 Vienna VA US current weather conditions

sailwx.info

Wind from 315 at 0 knots gusting 7

Air temperature 6.7° C
Dewpoint -1.7° C

Last reported at 2019-Dec-05 16:02 UTC.
Time now 2019-Dec-05 16:55 UTC

Location: N 38°55' W 077°16'.
View on Google Maps.

See reports from other nearby stations

  
Tides and Currents Weather Stations Pressure Air Temp Water Temp Dewpoint Dewpoint Depression Visibility Wind Speed Wind Dir Waves Ship Positions
date/time (UTC)wind fromknots sea level pressurealtimeterstation pressurevisibilityair tempwater tempwave heightnotes
2019-Dec-05 16:02 315 0 gusting 7 6.7
2019-Dec-05 15:45 057 0 gusting 5 6.7
2019-Dec-05 15:30 325 6.7
2019-Dec-05 15:15 310 0 gusting 4 5.0
2019-Dec-05 15:02 098 5.0
2019-Dec-05 14:45 296 5.0
2019-Dec-05 14:31 049 0 gusting 3 5.6
2019-Dec-05 14:15 306 0 gusting 6 5.0
2019-Dec-05 14:01 338 0 gusting 5 4.4
2019-Dec-05 13:45 306 0 gusting 6 3.9
2019-Dec-05 13:31 309 0 gusting 4 3.9
2019-Dec-05 13:16 005 0 gusting 4 3.3
2019-Dec-05 13:00 268 2.8
2019-Dec-05 12:46 355 2.8
2019-Dec-05 12:30 349 2.2
2019-Dec-05 12:16 349 2.2
2019-Dec-05 12:00 282 2.2
2019-Dec-05 11:30 321 2.8
2019-Dec-05 11:16 333 0 gusting 3 2.8
2019-Dec-05 11:00 329 2.8
2019-Dec-05 10:46 334 2.8
2019-Dec-05 10:30 336 2.8
2019-Dec-05 10:16 336 2.8
2019-Dec-05 10:00 033 2.8
2019-Dec-05 09:45 261 2.8
2019-Dec-05 09:30 261 3.3
2019-Dec-05 09:16 261 3.3
2019-Dec-05 09:00 261 3.3
2019-Dec-05 08:46 261 3.3
2019-Dec-05 08:30 190 2.8
2019-Dec-05 08:16 188 2.8
2019-Dec-05 08:00 327 3.3
2019-Dec-05 07:46 311 3.3
2019-Dec-05 07:31 313 2.8
2019-Dec-05 07:16 300 0 gusting 3 3.3
2019-Dec-05 07:00 252 0 gusting 4 3.3
2019-Dec-05 06:45 230 3.9
2019-Dec-05 06:32 294 3.3
2019-Dec-05 06:15 005 3.3
2019-Dec-05 06:02 005 3.3
2019-Dec-05 05:45 005 3.3
2019-Dec-05 05:31 360 3.9
2019-Dec-05 05:15 355 4.4
2019-Dec-05 05:02 355 4.4
2019-Dec-05 04:46 010 4.4
2019-Dec-05 04:30 010 5.0
2019-Dec-05 04:16 005 5.0
2019-Dec-05 04:00 277 5.0
2019-Dec-05 03:46 277 4.4
2019-Dec-05 03:30 278 3.9
2019-Dec-05 03:16 277 3.9
2019-Dec-05 03:02 278 3.3
2019-Dec-05 02:47 277 3.3
2019-Dec-05 02:31 277 3.9
2019-Dec-05 02:15 277 3.3
2019-Dec-05 02:02 277 3.3
2019-Dec-05 01:45 278 3.3
2019-Dec-05 01:30 277 3.9
2019-Dec-05 01:16 277 3.9
2019-Dec-05 01:00 278 4.4
2019-Dec-05 00:45 277 5.0
2019-Dec-05 00:30 278 5.0
2019-Dec-05 00:15 278 5.0
2019-Dec-05 00:01 277 5.6
2019-Dec-04 23:45 277 6.1
2019-Dec-04 23:31 276 6.1
2019-Dec-04 23:15 321 6.7
2019-Dec-04 23:02 289 6.7
2019-Dec-04 22:45 277 7.2
2019-Dec-04 22:31 220 7.2
2019-Dec-04 22:16 220 7.2
2019-Dec-04 22:00 220 7.2
2019-Dec-04 21:45 220 7.2
2019-Dec-04 21:30 220 7.8
2019-Dec-04 21:16 220 7.8
2019-Dec-04 21:01 220 7.8
2019-Dec-04 20:45 220 7.8
2019-Dec-04 20:30 220 8.3
2019-Dec-04 20:15 196 8.3
2019-Dec-04 20:01 196 8.9
2019-Dec-04 19:45 196 8.9
2019-Dec-04 19:31 197 8.9
2019-Dec-04 19:15 208 8.3
2019-Dec-04 19:01 166 8.3
2019-Dec-04 18:45 163 8.3
2019-Dec-04 18:31 169 8.3
2019-Dec-04 18:15 172 8.3
2019-Dec-04 18:01 196 8.9
2019-Dec-04 17:46 205 8.9
2019-Dec-04 17:30 204 7.8
2019-Dec-04 17:15 193 6.1
2019-Dec-04 17:02 181 5.6
2019-Dec-04 16:45 175 5.6
2019-Dec-04 16:32 221 5.0
2019-Dec-04 16:16 191 5.0
2019-Dec-04 16:00 234 5.0
2019-Dec-04 15:46 294 4.4
2019-Dec-04 15:32 154 0 gusting 6 3.9
2019-Dec-04 15:16 184 3.3
2019-Dec-04 15:00 180 2.8
2019-Dec-04 14:46 176 2.8
2019-Dec-04 14:30 176 2.2
2019-Dec-04 14:15 286 2.2
2019-Dec-04 13:46 292 1.1
2019-Dec-04 13:30 292 1.1
2019-Dec-04 13:15 292 1.1
2019-Dec-04 13:01 292 1.1
2019-Dec-04 12:45 292 0.6
2019-Dec-04 12:30 292 0.6
2019-Dec-04 12:16 292 -0.0
2019-Dec-04 12:00 292 -0.0
2019-Dec-04 11:46 292 -0.0
2019-Dec-04 11:30 292 0.6
2019-Dec-04 11:15 292 0.6
2019-Dec-04 11:01 292 1.1
2019-Dec-04 10:46 292 1.1
2019-Dec-04 10:31 292 1.7
2019-Dec-04 10:01 292 1.7
2019-Dec-04 09:45 292 1.7
2019-Dec-04 09:32 292 1.1
2019-Dec-04 09:15 292 1.1
2019-Dec-04 09:02 292 1.1
2019-Dec-04 08:46 292 1.7
2019-Dec-04 08:30 292 1.7
2019-Dec-04 08:15 292 1.7
2019-Dec-04 08:01 292 1.7
2019-Dec-04 07:45 292 1.7
2019-Dec-04 07:31 292 1.7
2019-Dec-04 07:15 292 2.2
2019-Dec-04 07:01 292 2.2
2019-Dec-04 06:45 292 2.8
2019-Dec-04 06:31 298 2.2
2019-Dec-04 06:16 298 1.7
2019-Dec-04 06:02 298 1.1
2019-Dec-04 05:45 298 1.1
2019-Dec-04 05:30 298 1.1
2019-Dec-04 05:16 298 1.7
2019-Dec-04 05:00 298 1.7
2019-Dec-04 04:46 298 1.7
2019-Dec-04 04:30 298 2.2
2019-Dec-04 04:17 298 2.2
2019-Dec-04 04:00 298 2.8
2019-Dec-04 03:45 298 2.8
2019-Dec-04 03:31 298 2.8
2019-Dec-04 03:16 298 2.2
2019-Dec-04 03:02 298 2.2
2019-Dec-04 02:45 298 2.2
2019-Dec-04 02:30 298 2.2
2019-Dec-04 02:16 298 2.8
2019-Dec-04 02:00 298 2.8
2019-Dec-04 01:46 298 2.8
2019-Dec-04 01:30 298 2.8
2019-Dec-04 01:16 298 2.8
2019-Dec-04 01:00 298 2.8
2019-Dec-04 00:46 298 3.3
2019-Dec-04 00:30 298 3.3
2019-Dec-04 00:16 298 3.3
2019-Dec-03 23:46 298 3.3
2019-Dec-03 23:31 298 3.3
2019-Dec-03 23:15 298 3.3
2019-Dec-03 23:00 298 3.3
2019-Dec-03 22:47 298 3.9
2019-Dec-03 22:31 298 3.9
2019-Dec-03 22:17 298 4.4
2019-Dec-03 22:01 300 5.0
2019-Dec-03 21:47 300 5.0
2019-Dec-03 21:31 300 5.6
2019-Dec-03 21:17 302 5.6
2019-Dec-03 21:01 300 6.1
2019-Dec-03 20:45 315 6.1
2019-Dec-03 20:31 348 6.7
2019-Dec-03 20:15 307 7.2
2019-Dec-03 20:01 333 7.2
2019-Dec-03 19:45 298 7.2
2019-Dec-03 19:31 285 7.2
2019-Dec-03 19:16 286 7.2
2019-Dec-03 19:00 347 0 gusting 7 7.8
2019-Dec-03 18:47 325 8.3
2019-Dec-03 18:30 254 8.9
2019-Dec-03 18:15 300 8.9
2019-Dec-03 18:01 317 0 gusting 4 8.9
2019-Dec-03 17:45 355 8.3
2019-Dec-03 17:31 272 0 gusting 6 8.3
2019-Dec-03 17:15 355 0 gusting 5 7.8
2019-Dec-03 17:01 311 7.8
2019-Dec-03 16:45 025 7.2
2019-Dec-03 16:32 330 1 gusting 5 7.2
2019-Dec-03 16:15 188 0 gusting 4 6.7
2019-Dec-03 16:01 332 1 gusting 3 6.7